EW9945 Weather Reports


time (UTC)temp
F
wind
direction
speed
knots
gust
knots
rain 1hr
in
rain 24hr
in
rain mn
in
humidity
%
barometer
mb
20260509190027 51 117 0.9 8.7 0.02 0.39 0.22 92 1007.9
20260509184522 51 121 1.7 9.6 0.02 0.38 0.21 92 1008.0
20260509183022 51 165 0.9 7.0 0.02 0.38 0.21 92 1008.0
20260509181521 51 116 1.7 7.8 0.03 0.38 0.21 92 1008.0
20260509180018 50 151 1.7 4.3 0.02 0.37 0.20 92 1008.1
20260509174518 50 154 0.0 0.9 0.01 0.36 0.19 92 1008.2
20260509173018 50 154 0.0 3.5 0.01 0.36 0.19 92 1008.2
20260509171516 50 154 0.0 2.6 0.01 0.35 0.18 92 1008.1
20260509170015 50 119 0.0 7.0 0.01 0.35 0.18 92 1008.2
20260509164512 50 144 0.9 4.3 0.01 0.35 0.18 92 1008.1
20260509163018 49 144 0.0 6.1 0.01 0.35 0.18 92 1008.1
20260509161512 49 148 0.9 6.1 0.00 0.34 0.17 92 1008.1
20260509160009 49 111 1.7 10.4 0.00 0.34 0.17 92 1008.3
20260509154506 49 126 0.9 7.8 0.00 0.34 0.17 91 1008.4
20260509153011 49 163 0.9 9.6 0.00 0.34 0.17 91 1008.6
20260509151504 49 120 1.7 7.8 0.00 0.34 0.17 91 1008.7
20260509150008 49 130 0.9 7.8 0.00 0.34 0.17 91 1008.9
20260509144512 49 150 0.9 7.8 0.00 0.34 0.17 91 1008.7
20260509143013 49 107 2.6 7.0 0.00 0.34 0.17 91 1008.6
20260509141502 48 187 0.9 7.0 0.00 0.34 0.17 91 1008.6
20260509140116 48 139 0.0 7.8 0.01 0.34 0.17 91 1008.8
20260509134600 48 155 1.7 7.0 0.02 0.34 0.17 91 1009.0
20260509133104 48 114 0.9 6.1 0.02 0.34 0.17 91 1009.1
20260509131602 48 136 0.0 7.0 0.02 0.34 0.17 91 1009.1
20260509130106 48 146 0.9 8.7 0.01 0.33 0.16 91 1009.2
20260509124606 48 138 1.7 7.0 0.00 0.32 0.15 91 1009.2
20260509123055 47 157 0.9 6.1 0.00 0.32 0.15 91 1009.3
20260509121601 47 124 0.0 6.1 0.01 0.32 0.15 92 1009.4
20260509120051 47 113 0.0 4.3 0.02 0.32 0.15 92 1009.5
20260509114551 47 124 0.0 1.7 0.05 0.32 0.15 92 1009.6
20260509113056 47 124 0.0 4.3 0.06 0.32 0.15 92 1009.7
20260509111556 47 176 0.9 2.6 0.07 0.31 0.14 92 1009.8
20260509110050 47 176 0.9 5.2 0.08 0.30 0.13 92 1009.9
20260509104548 46 160 0.9 9.6 0.08 0.28 0.11 92 1009.8
20260509103046 46 179 0.0 0.0 0.08 0.26 0.09 92 1009.8
20260509101545 46 179 0.0 0.0 0.08 0.25 0.08 92 1009.8
20260509100044 46 179 0.0 0.0 0.07 0.22 0.05 92 1009.6
20260509094544 46 179 0.0 1.7 0.07 0.20 0.03 92 1009.6
20260509093043 46 179 0.0 2.6 0.06 0.19 0.02 92 1009.6
20260509091540 46 180 0.0 0.0 0.04 0.17 0.00 92 1009.5
20260509090041 46 180 0.0 0.0 0.02 0.16 0.15 92 1009.8
20260509084542 46 180 0.0 0.0 0.01 0.14 0.13 92 1010.1
20260509083047 46 180 0.0 2.6 0.01 0.14 0.13 92 1010.1
20260509081537 46 180 0.0 0.0 0.01 0.14 0.13 92 1010.1
20260509080036 46 180 0.0 0.0 0.01 0.14 0.13 92 1010.1
20260509074537 46 180 0.0 0.0 0.01 0.14 0.13 91 1010.0
20260509073038 46 180 0.0 0.0 0.00 0.13 0.12 92 1010.4
20260509071535 46 180 0.0 0.0 0.00 0.13 0.12 91 1010.4
20260509070036 46 180 0.0 0.0 0.00 0.13 0.12 91 1010.4
20260509064536 46 180 0.0 1.7 0.00 0.13 0.12 91 1010.6
20260509063035 46 180 0.0 2.6 0.01 0.13 0.12 91 1010.8
20260509061540 47 180 0.0 0.0 0.01 0.13 0.12 91 1011.3
20260509060037 47 180 0.0 0.0 0.01 0.13 0.12 91 1011.5
20260509054533 47 180 0.0 0.0 0.02 0.13 0.12 91 1011.6
20260509053048 47 180 0.0 0.9 0.04 0.12 0.11 91 1011.8
20260509051533 47 180 0.0 0.0 0.06 0.12 0.11 91 1011.9
20260509050035 47 180 0.0 4.3 0.07 0.12 0.11 91 1011.9
20260509044534 47 183 0.0 3.5 0.07 0.11 0.10 90 1011.9
20260509043031 47 223 0.0 2.6 0.05 0.09 0.08 90 1012.2
20260509041540 48 226 0.0 0.0 0.02 0.06 0.05 90 1012.2
20260509040032 48 226 0.0 0.0 0.02 0.05 0.04 89 1011.8
20260509034531 48 226 0.0 0.0 0.02 0.04 0.03 89 1011.9
20260509033030 48 226 0.0 0.0 0.02 0.04 0.03 89 1011.9
20260509031531 48 226 0.0 0.9 0.02 0.04 0.03 88 1012.1
20260509030031 48 228 0.9 3.5 0.02 0.05 0.03 87 1012.2
20260509024530 48 222 0.0 5.2 0.01 0.04 0.02 86 1012.2
20260509023029 48 221 0.0 3.5 0.00 0.03 0.01 86 1012.2
20260509021529 49 229 0.0 6.1 0.00 0.03 0.01 85 1012.1
20260509020029 49 165 0.0 3.5 0.00 0.11 0.01 85 1012.0
20260509014527 49 198 0.9 5.2 0.00 0.11 0.01 85 1011.8
20260509013029 49 144 0.0 3.5 0.00 0.11 0.01 84 1011.5
20260509011530 50 138 0.0 7.0 0.00 0.11 0.01 81 1011.3
20260509010039 50 85 0.0 1.7 0.00 0.11 0.01 79 1011.2
20260509004529 50 80 0.0 0.0 0.00 0.11 0.01 79 1011.0
20260509003026 51 80 0.0 0.0 0.00 0.11 0.01 79 1010.8
20260509001526 50 80 0.0 0.9 0.01 0.11 0.01 80 1010.6
20260509000025 50 80 0.0 2.6 0.01 0.11 0.01 81 1010.7
20260508234526 50 131 0.0 2.6 0.01 0.11 0.01 80 1010.4
20260508233026 51 143 0.0 2.6 0.01 0.11 0.01 77 1010.2
20260508231525 54 175 0.0 4.3 0.00 0.10 0.00 67 1010.2
20260508230036 56 110 0.9 5.2 0.00 0.10 0.00 55 1010.0
20260508224534 57 281 0.0 0.9 0.00 0.10 0.00 50 1009.7
20260508223022 58 282 0.0 0.0 0.00 0.10 0.00 53 1009.8
20260508221537 57 282 0.0 0.9 0.00 0.10 0.00 50 1009.9
20260508220021 57 281 0.0 1.7 0.00 0.10 0.00 51 1009.8
20260508214521 57 162 0.0 1.7 0.00 0.10 0.00 51 1010.1
20260508213024 56 160 0.0 1.7 0.00 0.10 0.00 52 1009.9
20260508211519 57 153 0.0 2.6 0.00 0.10 0.00 52 1010.0
20260508210020 57 277 0.0 1.7 0.00 0.10 0.00 49 1010.0
20260508204520 58 299 0.9 7.8 0.00 0.10 0.00 48 1010.0
20260508203016 59 348 0.0 4.3 0.00 0.10 0.00 50 1010.3
20260508201514 56 281 3.5 7.8 0.00 0.10 0.00 50 1010.4
20260508200013 56 213 2.6 17.4 0.00 0.10 0.00 50 1010.5
20260508194513 57 299 4.3 10.4 0.00 0.10 0.00 48 1010.6
20260508193009 57 284 0.9 10.4 0.00 0.10 0.00 54 1010.9
20260508191509 55 320 7.8 14.8 0.00 0.10 0.00 53 1011.0